EZY8035 EGKK-GCTS

Flight info

Callsign EZY8035
Flight time 3h 56m
Altitude 33000
Route IMVUR N63 SAM M195 LORKU DCT EBOMO/N0452F350 DCT KORUL DCT AGADO DCT DIRMA DCT BEXAL UN866 KONBA
Aircraft A320/M-SDE3FGHIRWY/LB1

Departure

Time 2026-05-05 15:39
Airport London Gatwick Airport (EGKK)

Arrival

Time 2026-05-05 19:36
Airport Tenerife Sur Airport (GCTS)
Time Latitude Longitude Altitude Speed Heading
2026-05-05 14:18 51.15593 -0.17627 205 ft 0 kts 347°
2026-05-05 15:23 51.15576 -0.17620 206 ft 4 kts 339°
2026-05-05 15:23 51.15552 -0.17600 211 ft 4 kts 317°
2026-05-05 15:24 51.15537 -0.17567 206 ft 4 kts 283°
2026-05-05 15:24 51.15535 -0.17542 211 ft 0 kts 257°
2026-05-05 15:30 51.15535 -0.17546 210 ft 3 kts 257°
2026-05-05 15:30 51.15519 -0.17658 210 ft 12 kts 257°
2026-05-05 15:30 51.15501 -0.17783 211 ft 11 kts 257°
2026-05-05 15:31 51.15486 -0.17888 213 ft 9 kts 257°
2026-05-05 15:31 51.15474 -0.17975 215 ft 7 kts 258°
2026-05-05 15:31 51.15462 -0.18069 211 ft 14 kts 258°
2026-05-05 15:31 51.15443 -0.18212 212 ft 12 kts 257°
2026-05-05 15:32 51.15388 -0.18273 205 ft 10 kts 176°
2026-05-05 15:32 51.15319 -0.18255 205 ft 11 kts 168°
2026-05-05 15:32 51.15249 -0.18231 205 ft 9 kts 167°
2026-05-05 15:32 51.15176 -0.18294 212 ft 16 kts 258°
2026-05-05 15:33 51.15161 -0.18458 207 ft 14 kts 262°
2026-05-05 15:33 51.15147 -0.18606 205 ft 16 kts 260°
2026-05-05 15:33 51.15119 -0.18820 204 ft 20 kts 258°
2026-05-05 15:33 51.15094 -0.19020 208 ft 17 kts 258°
2026-05-05 15:34 51.15069 -0.19195 213 ft 15 kts 254°
2026-05-05 15:34 51.14998 -0.19270 207 ft 11 kts 193°
2026-05-05 15:34 51.14956 -0.19361 212 ft 14 kts 251°
2026-05-05 15:34 51.14922 -0.19583 211 ft 22 kts 257°
2026-05-05 15:35 51.14891 -0.19809 211 ft 20 kts 258°
2026-05-05 15:35 51.14862 -0.20017 205 ft 18 kts 257°
2026-05-05 15:35 51.14835 -0.20209 207 ft 17 kts 257°
2026-05-05 15:35 51.14811 -0.20385 212 ft 15 kts 257°
2026-05-05 15:36 51.14791 -0.20528 205 ft 12 kts 258°
2026-05-05 15:36 51.14768 -0.20705 212 ft 20 kts 257°
2026-05-05 15:36 51.14739 -0.20910 216 ft 17 kts 258°
2026-05-05 15:36 51.14716 -0.21087 206 ft 15 kts 257°
2026-05-05 15:37 51.14697 -0.21212 212 ft 2 kts 256°
2026-05-05 15:37 51.14697 -0.21213 212 ft 0 kts 256°
2026-05-05 15:38 51.14657 -0.21328 209 ft 17 kts 199°
2026-05-05 15:38 51.14569 -0.21293 215 ft 11 kts 160°
2026-05-05 15:38 51.14522 -0.21151 206 ft 19 kts 83°
2026-05-05 15:38 51.14554 -0.20917 212 ft 37 kts 78°
2026-05-05 15:39 51.14658 -0.20165 213 ft 101 kts 77°
2026-05-05 15:39 51.14850 -0.18778 208 ft 151 kts 78°
2026-05-05 15:39 51.15098 -0.17019 542 ft 166 kts 76°
2026-05-05 15:39 51.15356 -0.15199 1325 ft 166 kts 75°
2026-05-05 15:40 51.15613 -0.13332 1803 ft 183 kts 76°
2026-05-05 15:40 51.15900 -0.11231 2183 ft 204 kts 76°
2026-05-05 15:40 51.16210 -0.08942 2751 ft 217 kts 76°
2026-05-05 15:40 51.16637 -0.06603 3068 ft 222 kts 58°
2026-05-05 15:41 51.17761 -0.05095 3019 ft 215 kts 16°
2026-05-05 15:41 51.19245 -0.05257 3517 ft 215 kts 334°
2026-05-05 15:41 51.20183 -0.06810 4895 ft 188 kts 295°
2026-05-05 15:41 51.20712 -0.08811 5320 ft 206 kts 305°
2026-05-05 15:42 51.21648 -0.10723 5436 ft 232 kts 311°
2026-05-05 15:42 51.22355 -0.13155 5706 ft 259 kts 280°
2026-05-05 15:42 51.22361 -0.16121 6250 ft 273 kts 265°
2026-05-05 15:42 51.22040 -0.19125 6976 ft 277 kts 259°
2026-05-05 15:43 51.21609 -0.22144 7725 ft 280 kts 258°
2026-05-05 15:43 51.21158 -0.25179 8470 ft 283 kts 258°
2026-05-05 15:43 51.20723 -0.28257 9216 ft 286 kts 258°
2026-05-05 15:43 51.20309 -0.31387 9944 ft 289 kts 259°
2026-05-05 15:44 51.19916 -0.34545 10595 ft 293 kts 259°
2026-05-05 15:44 51.19512 -0.37756 11231 ft 297 kts 259°
2026-05-05 15:44 51.19087 -0.40996 11865 ft 301 kts 258°
2026-05-05 15:44 51.18642 -0.44324 12509 ft 305 kts 259°
2026-05-05 15:45 51.18205 -0.47605 13134 ft 308 kts 259°
2026-05-05 15:45 51.17756 -0.51012 13764 ft 313 kts 259°
2026-05-05 15:45 51.17173 -0.54380 14252 ft 320 kts 249°
2026-05-05 15:45 51.16306 -0.57759 14371 ft 340 kts 248°
2026-05-05 15:46 51.15361 -0.61313 14499 ft 358 kts 247°
2026-05-05 15:46 51.14355 -0.65043 14643 ft 374 kts 247°
2026-05-05 15:46 51.13318 -0.68885 15064 ft 381 kts 247°
2026-05-05 15:46 51.12269 -0.72776 15607 ft 384 kts 247°
2026-05-05 15:47 51.11212 -0.76708 16135 ft 387 kts 247°
2026-05-05 15:47 51.10515 -0.79304 16501 ft 388 kts 247°
2026-05-05 15:47 51.09088 -0.84621 17226 ft 391 kts 247°
2026-05-05 15:47 51.08014 -0.88606 17758 ft 394 kts 247°
2026-05-05 15:48 51.06927 -0.92630 18263 ft 396 kts 247°
2026-05-05 15:48 51.05833 -0.96679 18715 ft 398 kts 247°
2026-05-05 15:48 51.04749 -1.00695 19182 ft 399 kts 247°
2026-05-05 15:48 51.03616 -1.04878 19660 ft 401 kts 247°
2026-05-05 15:49 51.02511 -1.08949 20119 ft 403 kts 247°
2026-05-05 15:49 51.01774 -1.11653 20409 ft 404 kts 247°
2026-05-05 15:49 51.00628 -1.15859 20887 ft 405 kts 247°
2026-05-05 15:49 50.99159 -1.21248 21456 ft 407 kts 247°
2026-05-05 15:50 50.98387 -1.24076 21748 ft 408 kts 247°
2026-05-05 15:50 50.97256 -1.28184 22171 ft 410 kts 245°
2026-05-05 15:50 50.95770 -1.32208 22586 ft 412 kts 234°
2026-05-05 15:50 50.93940 -1.35593 22987 ft 415 kts 225°
2026-05-05 15:51 50.91701 -1.38503 23386 ft 418 kts 214°
2026-05-05 15:51 50.89264 -1.41028 23717 ft 420 kts 214°
2026-05-05 15:51 50.86816 -1.43566 24063 ft 421 kts 214°
2026-05-05 15:51 50.84334 -1.46146 24408 ft 422 kts 214°
2026-05-05 15:52 50.81904 -1.48674 24743 ft 423 kts 214°
2026-05-05 15:52 50.79412 -1.51265 25094 ft 424 kts 214°
2026-05-05 15:52 50.76942 -1.53828 25439 ft 425 kts 213°
2026-05-05 15:52 50.74467 -1.56391 25744 ft 427 kts 213°
2026-05-05 15:53 50.71981 -1.58958 26038 ft 429 kts 213°
2026-05-05 15:53 50.69473 -1.61545 26343 ft 430 kts 213°
2026-05-05 15:53 50.66968 -1.64126 26625 ft 432 kts 213°
2026-05-05 15:53 50.64437 -1.66729 26904 ft 434 kts 213°
2026-05-05 15:54 50.61906 -1.69328 27162 ft 436 kts 213°
2026-05-05 15:54 50.59355 -1.71938 27428 ft 438 kts 212°
2026-05-05 15:54 50.56798 -1.74552 27696 ft 439 kts 212°
2026-05-05 15:54 50.54202 -1.77208 27958 ft 440 kts 212°
2026-05-05 15:55 50.51668 -1.79802 28219 ft 441 kts 212°
2026-05-05 15:55 50.49059 -1.82474 28484 ft 443 kts 212°
2026-05-05 15:55 50.46473 -1.85116 28736 ft 444 kts 212°
2026-05-05 15:55 50.43878 -1.87759 28982 ft 445 kts 212°
2026-05-05 15:56 50.41278 -1.90398 29251 ft 446 kts 212°
2026-05-05 15:56 50.38677 -1.93032 29643 ft 444 kts 212°
2026-05-05 15:56 50.36087 -1.95652 29991 ft 443 kts 212°
2026-05-05 15:56 50.33505 -1.98263 30296 ft 441 kts 212°
2026-05-05 15:57 50.30922 -2.00876 30562 ft 441 kts 212°
2026-05-05 15:57 50.28346 -2.03482 30817 ft 441 kts 212°
2026-05-05 15:57 50.25771 -2.06085 31050 ft 442 kts 212°
2026-05-05 15:57 50.23185 -2.08689 31289 ft 442 kts 212°
2026-05-05 15:58 50.20588 -2.11251 31524 ft 442 kts 211°
2026-05-05 15:58 50.17974 -2.13788 31769 ft 442 kts 211°
2026-05-05 15:58 50.15353 -2.16309 32019 ft 442 kts 211°
2026-05-05 15:58 50.12732 -2.18824 32280 ft 442 kts 211°
2026-05-05 15:59 50.10122 -2.21338 32543 ft 442 kts 211°
2026-05-05 15:59 50.07511 -2.23867 32775 ft 442 kts 212°
2026-05-05 15:59 50.04901 -2.26401 33007 ft 442 kts 212°
2026-05-05 15:59 50.02289 -2.28936 33242 ft 443 kts 212°
2026-05-05 16:00 49.99670 -2.31475 33474 ft 443 kts 212°
2026-05-05 16:00 49.97057 -2.34000 33704 ft 443 kts 212°
2026-05-05 16:00 49.94431 -2.36531 33918 ft 444 kts 212°
2026-05-05 16:00 49.91809 -2.39049 34104 ft 445 kts 212°
2026-05-05 16:01 49.89173 -2.41579 34280 ft 445 kts 212°
2026-05-05 16:01 49.86544 -2.44109 34469 ft 446 kts 212°
2026-05-05 16:01 49.83909 -2.46649 34640 ft 446 kts 212°
2026-05-05 16:01 49.81270 -2.49190 34804 ft 447 kts 212°
2026-05-05 16:02 49.78628 -2.51724 34938 ft 448 kts 212°
2026-05-05 16:02 49.73283 -2.56824 34966 ft 447 kts 212°
2026-05-05 16:03 49.68001 -2.61856 34967 ft 447 kts 212°
2026-05-05 16:03 49.62708 -2.66892 34971 ft 447 kts 211°
2026-05-05 16:04 49.57415 -2.71911 34970 ft 447 kts 211°
2026-05-05 16:04 49.52126 -2.76920 34971 ft 447 kts 211°
2026-05-05 16:05 49.46828 -2.81917 34972 ft 447 kts 211°
2026-05-05 16:05 49.41492 -2.86935 34969 ft 447 kts 211°
2026-05-05 16:06 49.36232 -2.91881 34970 ft 446 kts 211°
2026-05-05 16:06 49.30862 -2.96910 34975 ft 446 kts 211°
2026-05-05 16:07 49.25785 -3.01648 34972 ft 446 kts 211°
2026-05-05 16:07 49.20364 -3.06694 34972 ft 446 kts 211°
2026-05-05 16:08 49.15074 -3.11613 34969 ft 446 kts 211°
2026-05-05 16:08 49.09808 -3.16495 34969 ft 446 kts 211°
2026-05-05 16:09 49.04504 -3.21403 34972 ft 446 kts 210°
2026-05-05 16:09 48.99196 -3.26294 34971 ft 445 kts 210°
2026-05-05 16:10 48.93854 -3.31207 34974 ft 445 kts 210°
2026-05-05 16:10 48.88552 -3.36077 34970 ft 445 kts 210°
2026-05-05 16:11 48.83242 -3.40942 34980 ft 445 kts 210°
2026-05-05 16:11 48.75217 -3.48190 39642 ft 455 kts 211°
2026-05-05 16:12 48.72503 -3.50663 39243 ft 456 kts 211°
2026-05-05 16:12 48.67108 -3.55613 38270 ft 451 kts 211°
2026-05-05 16:13 48.59084 -3.62917 36428 ft 448 kts 210°
2026-05-05 16:13 48.56413 -3.65328 35814 ft 447 kts 210°
2026-05-05 16:13 48.53744 -3.67736 35234 ft 446 kts 210°
2026-05-05 16:14 48.48429 -3.72523 34969 ft 445 kts 210°
2026-05-05 16:14 48.43082 -3.77310 34976 ft 447 kts 210°
2026-05-05 16:15 48.32387 -3.86893 34971 ft 448 kts 210°
2026-05-05 16:16 48.22533 -3.95663 34976 ft 448 kts 209°
2026-05-05 16:17 48.14489 -4.02795 34983 ft 448 kts 209°
2026-05-05 16:18 48.06427 -4.09918 34989 ft 449 kts 210°
2026-05-05 16:19 47.98373 -4.17017 34983 ft 448 kts 210°
2026-05-05 16:19 47.90306 -4.24080 34983 ft 448 kts 210°
2026-05-05 16:20 47.79567 -4.33510 34981 ft 448 kts 210°
2026-05-05 16:22 47.66338 -4.45915 34972 ft 449 kts 211°
2026-05-05 16:23 47.55729 -4.55698 34976 ft 449 kts 211°
2026-05-05 16:23 47.47767 -4.63001 34968 ft 449 kts 211°
2026-05-05 16:24 47.42460 -4.67874 34978 ft 449 kts 211°
2026-05-05 16:25 47.34482 -4.75174 34974 ft 450 kts 211°
2026-05-05 16:25 47.26494 -4.82446 34964 ft 450 kts 211°
2026-05-05 16:26 47.15794 -4.92136 34969 ft 450 kts 210°
2026-05-05 16:27 47.10456 -4.96949 34968 ft 450 kts 210°
2026-05-05 16:27 47.05114 -5.01762 34975 ft 450 kts 210°
2026-05-05 16:28 46.99776 -5.06571 34981 ft 451 kts 211°
2026-05-05 16:28 46.94434 -5.11370 34977 ft 451 kts 210°
2026-05-05 16:29 46.89079 -5.16159 34980 ft 451 kts 210°
2026-05-05 16:29 46.83724 -5.20932 34988 ft 451 kts 210°
2026-05-05 16:30 46.78354 -5.25718 34978 ft 452 kts 211°
2026-05-05 16:30 46.72982 -5.30491 34975 ft 452 kts 211°
2026-05-05 16:31 46.67600 -5.35250 34978 ft 453 kts 211°
2026-05-05 16:31 46.62215 -5.40006 34974 ft 453 kts 210°
2026-05-05 16:32 46.56829 -5.44774 34982 ft 453 kts 211°
2026-05-05 16:32 46.51439 -5.49525 34986 ft 453 kts 210°
2026-05-05 16:33 46.46036 -5.54251 34995 ft 453 kts 211°
2026-05-05 16:33 46.40602 -5.59001 34994 ft 453 kts 211°
2026-05-05 16:34 46.35208 -5.63718 35000 ft 453 kts 211°
2026-05-05 16:34 46.29816 -5.68422 34998 ft 453 kts 211°
2026-05-05 16:35 46.24424 -5.73121 35005 ft 453 kts 211°
2026-05-05 16:35 46.19022 -5.77811 35000 ft 453 kts 211°
2026-05-05 16:36 46.13617 -5.82478 35004 ft 453 kts 211°
2026-05-05 16:36 46.08204 -5.87143 35003 ft 453 kts 211°
2026-05-05 16:37 46.02796 -5.91811 35006 ft 453 kts 211°
2026-05-05 16:37 45.97387 -5.96473 35010 ft 453 kts 211°
2026-05-05 16:38 45.91978 -6.01115 35011 ft 453 kts 211°
2026-05-05 16:38 45.86568 -6.05737 35018 ft 453 kts 211°
2026-05-05 16:39 45.81150 -6.10364 35018 ft 453 kts 211°
2026-05-05 16:39 45.75740 -6.14969 35018 ft 452 kts 211°
2026-05-05 16:40 45.70327 -6.19567 35020 ft 452 kts 211°
2026-05-05 16:40 45.64884 -6.24187 35024 ft 452 kts 211°
2026-05-05 16:41 45.59472 -6.28779 35021 ft 452 kts 211°
2026-05-05 16:41 45.54061 -6.33347 35031 ft 452 kts 211°
2026-05-05 16:42 45.48652 -6.37910 35027 ft 451 kts 211°
2026-05-05 16:42 45.43247 -6.42450 35027 ft 451 kts 211°
2026-05-05 16:43 45.37827 -6.46982 35031 ft 451 kts 211°
2026-05-05 16:43 45.32418 -6.51510 35027 ft 451 kts 211°
2026-05-05 16:44 45.27015 -6.56031 35028 ft 451 kts 211°
2026-05-05 16:44 45.21598 -6.60547 35032 ft 452 kts 211°
2026-05-05 16:45 45.16172 -6.65050 35037 ft 452 kts 211°
2026-05-05 16:45 45.10712 -6.69583 35033 ft 452 kts 211°
2026-05-05 16:46 45.05284 -6.74072 35039 ft 452 kts 211°
2026-05-05 16:46 44.99853 -6.78553 35037 ft 452 kts 211°
2026-05-05 16:47 44.94417 -6.83030 35038 ft 452 kts 211°
2026-05-05 16:47 44.89905 -6.86740 35035 ft 452 kts 211°
2026-05-05 16:48 44.84473 -6.91192 35034 ft 452 kts 211°
2026-05-05 16:48 44.78957 -6.95429 35035 ft 452 kts 208°
2026-05-05 16:49 44.73322 -6.99367 35039 ft 452 kts 207°
2026-05-05 16:49 44.67676 -7.03278 35039 ft 452 kts 208°
2026-05-05 16:50 44.62017 -7.07265 35038 ft 452 kts 208°
2026-05-05 16:50 44.56410 -7.11269 35046 ft 452 kts 208°
2026-05-05 16:51 44.50798 -7.15261 35049 ft 452 kts 208°
2026-05-05 16:51 44.45189 -7.19225 35056 ft 452 kts 208°
2026-05-05 16:52 44.39578 -7.23176 35056 ft 451 kts 208°
2026-05-05 16:52 44.33971 -7.27117 35055 ft 451 kts 208°
2026-05-05 16:53 44.28361 -7.31049 35057 ft 451 kts 208°
2026-05-05 16:53 44.22756 -7.34977 35053 ft 451 kts 208°
2026-05-05 16:54 44.17147 -7.38891 35059 ft 451 kts 208°
2026-05-05 16:54 44.11538 -7.42806 35055 ft 451 kts 208°
2026-05-05 16:55 44.05930 -7.46706 35065 ft 451 kts 208°
2026-05-05 16:55 44.00322 -7.50598 35066 ft 451 kts 208°
2026-05-05 16:56 43.94717 -7.54478 35069 ft 450 kts 208°
2026-05-05 16:56 43.89110 -7.58356 35071 ft 450 kts 208°
2026-05-05 16:57 43.83509 -7.62224 35077 ft 449 kts 208°
2026-05-05 16:57 43.77872 -7.66098 35079 ft 449 kts 208°
2026-05-05 16:58 43.72285 -7.69932 35081 ft 449 kts 208°
2026-05-05 16:58 43.66649 -7.73804 35084 ft 448 kts 209°
2026-05-05 16:59 43.61064 -7.77635 35083 ft 448 kts 208°
2026-05-05 16:59 43.55472 -7.81445 35082 ft 448 kts 208°
2026-05-05 17:00 43.49879 -7.85247 35079 ft 448 kts 209°
2026-05-05 17:00 43.44288 -7.89042 35078 ft 448 kts 209°
2026-05-05 17:01 43.38708 -7.92825 35081 ft 448 kts 209°
2026-05-05 17:01 43.33083 -7.96634 35073 ft 447 kts 209°
2026-05-05 17:02 43.27503 -8.00402 35068 ft 447 kts 209°
2026-05-05 17:02 43.21930 -8.04159 35073 ft 446 kts 209°
2026-05-05 17:03 43.16359 -8.07913 35067 ft 446 kts 209°
2026-05-05 17:03 43.10796 -8.11651 35063 ft 446 kts 209°
2026-05-05 17:04 43.05208 -8.15389 35067 ft 446 kts 209°
2026-05-05 17:04 42.99643 -8.19118 35074 ft 446 kts 209°
2026-05-05 17:05 42.94069 -8.22839 35081 ft 446 kts 209°
2026-05-05 17:05 42.88501 -8.26547 35083 ft 446 kts 210°
2026-05-05 17:06 42.82888 -8.30276 35081 ft 445 kts 210°
2026-05-05 17:06 42.77317 -8.33976 35075 ft 445 kts 210°
2026-05-05 17:07 42.71747 -8.37662 35073 ft 445 kts 210°
2026-05-05 17:07 42.66174 -8.41341 35065 ft 445 kts 210°
2026-05-05 17:08 42.60598 -8.45019 35060 ft 445 kts 210°
2026-05-05 17:08 42.55027 -8.48678 35059 ft 445 kts 210°
2026-05-05 17:09 42.49451 -8.52325 35066 ft 445 kts 210°
2026-05-05 17:09 42.43885 -8.55975 35065 ft 444 kts 210°
2026-05-05 17:10 42.38321 -8.59626 35076 ft 444 kts 210°
2026-05-05 17:10 42.32746 -8.63268 35080 ft 444 kts 210°
2026-05-05 17:11 42.27179 -8.66895 35080 ft 444 kts 210°
2026-05-05 17:11 42.21614 -8.70503 35078 ft 443 kts 210°
2026-05-05 17:12 42.16042 -8.74114 35077 ft 443 kts 210°
2026-05-05 17:12 42.10485 -8.77716 35072 ft 443 kts 210°
2026-05-05 17:13 42.04937 -8.81305 35072 ft 442 kts 210°
2026-05-05 17:13 41.99384 -8.84890 35069 ft 443 kts 210°
2026-05-05 17:14 41.93831 -8.88463 35080 ft 443 kts 210°
2026-05-05 17:14 41.88268 -8.92028 35090 ft 442 kts 210°
2026-05-05 17:15 41.82664 -8.95448 35086 ft 443 kts 208°
2026-05-05 17:15 41.76972 -8.98643 35078 ft 443 kts 207°
2026-05-05 17:16 41.71244 -9.01817 35092 ft 442 kts 208°
2026-05-05 17:16 41.65591 -9.05009 35085 ft 441 kts 208°
2026-05-05 17:17 41.60885 -9.07687 35093 ft 441 kts 208°
2026-05-05 17:17 41.55240 -9.10903 35094 ft 441 kts 208°
2026-05-05 17:18 41.49593 -9.14096 35094 ft 441 kts 208°
2026-05-05 17:18 41.43941 -9.17273 35091 ft 441 kts 208°
2026-05-05 17:19 41.38299 -9.20446 35099 ft 440 kts 208°
2026-05-05 17:19 41.32666 -9.23618 35098 ft 439 kts 208°
2026-05-05 17:20 41.27035 -9.26783 35105 ft 439 kts 208°
2026-05-05 17:20 41.21411 -9.29934 35099 ft 438 kts 208°
2026-05-05 17:21 41.15791 -9.33071 35096 ft 438 kts 208°
2026-05-05 17:22 41.07347 -9.37776 35096 ft 437 kts 208°
2026-05-05 17:22 41.01734 -9.40899 35092 ft 437 kts 209°
2026-05-05 17:23 40.96136 -9.44016 35091 ft 436 kts 209°
2026-05-05 17:23 40.90537 -9.47121 35092 ft 436 kts 209°
2026-05-05 17:24 40.84935 -9.50194 35092 ft 436 kts 207°
2026-05-05 17:24 40.79191 -9.52867 35094 ft 439 kts 204°
2026-05-05 17:25 40.73345 -9.55229 35096 ft 439 kts 203°
2026-05-05 17:25 40.67511 -9.57606 35100 ft 438 kts 204°
2026-05-05 17:26 40.61712 -9.60065 35098 ft 437 kts 205°
2026-05-05 17:26 40.55927 -9.62549 35105 ft 437 kts 205°
2026-05-05 17:27 40.50104 -9.65039 35048 ft 436 kts 203°
2026-05-05 17:27 40.44321 -9.67489 35095 ft 437 kts 203°
2026-05-05 17:28 40.38532 -9.69923 35103 ft 437 kts 203°
2026-05-05 17:28 40.32750 -9.72357 35106 ft 436 kts 203°
2026-05-05 17:29 40.26980 -9.74795 35108 ft 435 kts 203°
2026-05-05 17:29 40.21212 -9.77217 35111 ft 435 kts 203°
2026-05-05 17:30 40.15448 -9.79634 35110 ft 435 kts 203°
2026-05-05 17:30 40.09693 -9.82048 35112 ft 435 kts 203°
2026-05-05 17:31 40.03933 -9.84459 35108 ft 434 kts 203°
2026-05-05 17:31 39.98131 -9.86880 35110 ft 434 kts 202°
2026-05-05 17:32 39.92378 -9.89273 35104 ft 434 kts 202°
2026-05-05 17:32 39.86617 -9.91671 35104 ft 434 kts 202°
2026-05-05 17:33 39.80862 -9.94064 35105 ft 434 kts 202°
2026-05-05 17:33 39.75104 -9.96444 35106 ft 434 kts 202°
2026-05-05 17:34 39.69355 -9.98819 35112 ft 434 kts 202°
2026-05-05 17:34 39.63595 -10.01200 35111 ft 434 kts 202°
2026-05-05 17:35 39.57848 -10.03565 35108 ft 434 kts 202°
2026-05-05 17:35 39.52103 -10.05933 35111 ft 433 kts 202°
2026-05-05 17:36 39.46364 -10.08301 35115 ft 433 kts 202°
2026-05-05 17:36 39.40620 -10.10665 35129 ft 432 kts 202°
2026-05-05 17:37 39.34889 -10.13004 35121 ft 432 kts 202°
2026-05-05 17:37 39.29163 -10.15344 35110 ft 431 kts 202°
2026-05-05 17:38 39.23442 -10.17681 35121 ft 431 kts 203°
2026-05-05 17:38 39.17697 -10.20017 35119 ft 430 kts 203°
2026-05-05 17:39 39.11995 -10.22330 35120 ft 429 kts 203°
2026-05-05 17:39 39.06310 -10.24639 35121 ft 428 kts 203°
2026-05-05 17:40 39.00623 -10.26944 35122 ft 428 kts 203°
2026-05-05 17:40 38.94952 -10.29238 35122 ft 427 kts 203°
2026-05-05 17:41 38.89292 -10.31527 35123 ft 426 kts 203°
2026-05-05 17:41 38.83644 -10.33808 35124 ft 425 kts 204°
2026-05-05 17:42 38.78000 -10.36083 35123 ft 425 kts 204°
2026-05-05 17:42 38.72372 -10.38348 35125 ft 424 kts 204°
2026-05-05 17:43 38.66743 -10.40599 35124 ft 423 kts 203°
2026-05-05 17:43 38.61117 -10.42841 35120 ft 423 kts 203°
2026-05-05 17:44 38.55467 -10.45096 35116 ft 423 kts 204°
2026-05-05 17:44 38.49852 -10.47340 35116 ft 423 kts 203°
2026-05-05 17:45 38.44241 -10.49588 35120 ft 423 kts 203°
2026-05-05 17:45 38.38631 -10.51823 35123 ft 423 kts 203°
2026-05-05 17:46 38.33010 -10.54051 35116 ft 422 kts 203°
2026-05-05 17:46 38.27402 -10.56279 35113 ft 423 kts 203°
2026-05-05 17:47 38.21784 -10.58508 35116 ft 423 kts 203°
2026-05-05 17:47 38.16160 -10.60737 35118 ft 423 kts 203°
2026-05-05 17:48 38.10537 -10.62955 35116 ft 423 kts 203°
2026-05-05 17:48 38.04909 -10.65164 35115 ft 423 kts 203°
2026-05-05 17:49 37.99284 -10.67374 35112 ft 423 kts 203°
2026-05-05 17:49 37.94568 -10.69227 35110 ft 424 kts 203°
2026-05-05 17:50 37.88932 -10.71440 35109 ft 424 kts 202°
2026-05-05 17:50 37.83289 -10.73650 35112 ft 425 kts 202°
2026-05-05 17:51 37.77641 -10.75852 35114 ft 425 kts 202°
2026-05-05 17:51 37.71991 -10.78052 35115 ft 425 kts 202°
2026-05-05 17:52 37.66336 -10.80259 35116 ft 425 kts 202°
2026-05-05 17:52 37.60682 -10.82464 35112 ft 425 kts 202°
2026-05-05 17:53 37.55022 -10.84659 35114 ft 425 kts 202°
2026-05-05 17:53 37.49365 -10.86855 35114 ft 425 kts 202°
2026-05-05 17:54 37.43707 -10.89039 35114 ft 425 kts 202°
2026-05-05 17:54 37.38012 -10.91247 35116 ft 425 kts 202°
2026-05-05 17:55 37.32347 -10.93434 35126 ft 426 kts 202°
2026-05-05 17:55 37.26686 -10.95623 35125 ft 426 kts 202°
2026-05-05 17:56 37.21014 -10.97813 35124 ft 427 kts 202°
2026-05-05 17:56 37.15335 -10.99989 35123 ft 427 kts 201°
2026-05-05 17:57 37.09653 -11.02163 35125 ft 427 kts 201°
2026-05-05 17:57 37.03966 -11.04340 35122 ft 428 kts 201°
2026-05-05 17:58 36.98273 -11.06517 35123 ft 428 kts 201°
2026-05-05 17:58 36.92581 -11.08693 35125 ft 428 kts 201°
2026-05-05 17:59 36.86889 -11.10868 35129 ft 428 kts 201°
2026-05-05 17:59 36.81199 -11.13038 35134 ft 428 kts 201°
2026-05-05 18:00 36.75618 -11.15164 35135 ft 428 kts 201°
2026-05-05 18:00 36.69783 -11.17371 35135 ft 428 kts 201°
2026-05-05 18:01 36.64079 -11.19537 35134 ft 428 kts 201°
2026-05-05 18:01 36.58380 -11.21694 35132 ft 428 kts 201°
2026-05-05 18:02 36.52644 -11.23853 35130 ft 428 kts 201°
2026-05-05 18:02 36.46949 -11.26000 35131 ft 428 kts 201°
2026-05-05 18:03 36.41246 -11.28146 35137 ft 428 kts 201°
2026-05-05 18:03 36.35540 -11.30281 35133 ft 428 kts 201°
2026-05-05 18:04 36.29832 -11.32423 35133 ft 428 kts 201°
2026-05-05 18:04 36.24139 -11.34573 35128 ft 428 kts 201°
2026-05-05 18:05 36.18436 -11.36714 35132 ft 428 kts 201°
2026-05-05 18:05 36.12734 -11.38844 35132 ft 428 kts 201°
2026-05-05 18:06 36.07027 -11.40960 35133 ft 428 kts 201°
2026-05-05 18:06 36.01287 -11.43104 35154 ft 428 kts 201°
2026-05-05 18:07 35.95813 -11.45720 35149 ft 421 kts 213°
2026-05-05 18:07 35.90985 -11.49804 35140 ft 418 kts 219°
2026-05-05 18:08 35.86260 -11.53969 35135 ft 418 kts 219°
2026-05-05 18:08 35.81528 -11.58126 35132 ft 417 kts 218°
2026-05-05 18:09 35.76793 -11.62270 35117 ft 417 kts 218°
2026-05-05 18:09 35.72054 -11.66409 35122 ft 418 kts 218°
2026-05-05 18:10 35.67315 -11.70549 35132 ft 418 kts 218°
2026-05-05 18:10 35.62576 -11.74682 35133 ft 418 kts 218°
2026-05-05 18:11 35.57833 -11.78819 35129 ft 418 kts 218°
2026-05-05 18:11 35.53085 -11.82951 35133 ft 418 kts 218°
2026-05-05 18:12 35.48334 -11.87079 35131 ft 419 kts 218°
2026-05-05 18:12 35.43576 -11.91201 35131 ft 419 kts 218°
2026-05-05 18:13 35.38817 -11.95313 35132 ft 419 kts 218°
2026-05-05 18:13 35.34061 -11.99426 35130 ft 419 kts 218°
2026-05-05 18:14 35.29299 -12.03539 35126 ft 419 kts 218°
2026-05-05 18:14 35.25317 -12.06974 35124 ft 419 kts 218°
2026-05-05 18:15 35.20548 -12.11081 35124 ft 419 kts 218°
2026-05-05 18:15 35.15775 -12.15178 35123 ft 419 kts 218°
2026-05-05 18:16 35.10999 -12.19285 35124 ft 420 kts 218°
2026-05-05 18:16 35.06216 -12.23386 35126 ft 420 kts 218°
2026-05-05 18:17 35.01419 -12.27472 35124 ft 421 kts 218°
2026-05-05 18:17 34.96594 -12.31596 35125 ft 421 kts 218°
2026-05-05 18:18 34.91796 -12.35697 35127 ft 421 kts 218°
2026-05-05 18:18 34.86990 -12.39785 35124 ft 421 kts 218°
2026-05-05 18:19 34.82190 -12.43870 35122 ft 421 kts 218°
2026-05-05 18:19 34.77386 -12.47957 35116 ft 421 kts 218°
2026-05-05 18:20 34.72571 -12.52039 35122 ft 422 kts 218°
2026-05-05 18:20 34.67762 -12.56116 35113 ft 422 kts 218°
2026-05-05 18:21 34.62952 -12.60189 35120 ft 422 kts 218°
2026-05-05 18:21 34.58133 -12.64260 35114 ft 422 kts 217°
2026-05-05 18:22 34.53309 -12.68326 35112 ft 422 kts 218°
2026-05-05 18:22 34.48485 -12.72384 35112 ft 422 kts 217°
2026-05-05 18:23 34.43660 -12.76436 35112 ft 422 kts 217°
2026-05-05 18:23 34.38806 -12.80511 35112 ft 422 kts 218°
2026-05-05 18:24 34.33987 -12.84563 35109 ft 422 kts 218°
2026-05-05 18:24 34.29162 -12.88608 35108 ft 422 kts 217°
2026-05-05 18:25 34.24336 -12.92646 35108 ft 422 kts 218°
2026-05-05 18:25 34.19531 -12.96703 35111 ft 421 kts 218°
2026-05-05 18:26 34.14727 -13.00758 35104 ft 421 kts 218°
2026-05-05 18:26 34.09921 -13.04802 35105 ft 421 kts 218°
2026-05-05 18:27 34.05115 -13.08843 35101 ft 421 kts 218°
2026-05-05 18:27 34.00304 -13.12879 35102 ft 421 kts 218°
2026-05-05 18:28 33.93090 -13.18915 35102 ft 421 kts 218°
2026-05-05 18:28 33.88287 -13.22932 35098 ft 421 kts 218°
2026-05-05 18:29 33.83479 -13.26957 35098 ft 420 kts 218°
2026-05-05 18:29 33.78678 -13.30963 35099 ft 420 kts 218°
2026-05-05 18:30 33.73871 -13.34968 35093 ft 420 kts 218°
2026-05-05 18:30 33.69035 -13.38987 35096 ft 420 kts 218°
2026-05-05 18:31 33.64225 -13.42980 35094 ft 420 kts 218°
2026-05-05 18:31 33.59412 -13.46968 35098 ft 420 kts 218°
2026-05-05 18:32 33.54605 -13.50951 35094 ft 420 kts 218°
2026-05-05 18:32 33.49798 -13.54935 35098 ft 420 kts 218°
2026-05-05 18:33 33.44985 -13.58907 35095 ft 420 kts 218°
2026-05-05 18:33 33.40170 -13.62873 35097 ft 420 kts 218°
2026-05-05 18:34 33.35355 -13.66832 35096 ft 420 kts 218°
2026-05-05 18:34 33.30543 -13.70795 35093 ft 420 kts 218°
2026-05-05 18:35 33.25735 -13.74753 35098 ft 420 kts 218°
2026-05-05 18:35 33.20920 -13.78699 35097 ft 420 kts 218°
2026-05-05 18:36 33.16073 -13.82667 35097 ft 420 kts 218°
2026-05-05 18:36 33.11257 -13.86604 35094 ft 420 kts 218°
2026-05-05 18:37 33.06417 -13.90518 35096 ft 420 kts 218°
2026-05-05 18:37 33.01586 -13.94429 35096 ft 420 kts 218°
2026-05-05 18:38 32.96755 -13.98343 35094 ft 420 kts 218°
2026-05-05 18:38 32.91917 -14.02256 35103 ft 420 kts 218°
2026-05-05 18:39 32.87081 -14.06167 35101 ft 420 kts 218°
2026-05-05 18:39 32.82240 -14.10062 35091 ft 420 kts 218°
2026-05-05 18:40 32.77398 -14.13954 35100 ft 420 kts 218°
2026-05-05 18:40 32.72555 -14.17852 35096 ft 420 kts 218°
2026-05-05 18:41 32.67715 -14.21736 35096 ft 420 kts 218°
2026-05-05 18:41 32.62872 -14.25622 35093 ft 420 kts 218°
2026-05-05 18:42 32.58037 -14.29495 35100 ft 419 kts 217°
2026-05-05 18:42 32.53199 -14.33362 35096 ft 419 kts 218°
2026-05-05 18:43 32.48365 -14.37225 35095 ft 419 kts 217°
2026-05-05 18:43 32.43523 -14.41085 35093 ft 419 kts 217°
2026-05-05 18:44 32.38659 -14.44969 35093 ft 419 kts 217°
2026-05-05 18:44 32.33824 -14.48808 35089 ft 419 kts 217°
2026-05-05 18:45 32.28986 -14.52652 35091 ft 419 kts 217°
2026-05-05 18:45 32.24152 -14.56485 35089 ft 419 kts 217°
2026-05-05 18:46 32.19308 -14.60318 35084 ft 419 kts 217°
2026-05-05 18:46 32.15288 -14.63503 35081 ft 419 kts 217°
2026-05-05 18:47 32.10452 -14.67329 35078 ft 419 kts 217°
2026-05-05 18:47 32.05610 -14.71150 35076 ft 419 kts 217°
2026-05-05 18:48 32.00772 -14.74970 35074 ft 419 kts 217°
2026-05-05 18:48 31.95924 -14.78791 35069 ft 419 kts 217°
2026-05-05 18:49 31.91083 -14.82601 35070 ft 419 kts 217°
2026-05-05 18:49 31.86195 -14.86431 35071 ft 419 kts 217°
2026-05-05 18:50 31.81347 -14.90230 35066 ft 419 kts 217°
2026-05-05 18:50 31.76497 -14.94029 35066 ft 419 kts 217°
2026-05-05 18:51 31.71651 -14.97825 35057 ft 418 kts 217°
2026-05-05 18:51 31.66806 -15.01616 35064 ft 418 kts 217°
2026-05-05 18:52 31.61959 -15.05395 35062 ft 418 kts 217°
2026-05-05 18:52 31.57105 -15.09176 35061 ft 418 kts 217°
2026-05-05 18:53 31.52256 -15.12948 35063 ft 418 kts 217°
2026-05-05 18:53 31.47412 -15.16714 35064 ft 418 kts 217°
2026-05-05 18:54 31.42563 -15.20484 35061 ft 418 kts 217°
2026-05-05 18:54 31.37711 -15.24242 35065 ft 418 kts 217°
2026-05-05 18:55 31.32861 -15.27997 35062 ft 418 kts 217°
2026-05-05 18:55 31.27919 -15.31684 35059 ft 419 kts 213°
2026-05-05 18:56 31.22806 -15.34969 35058 ft 420 kts 211°
2026-05-05 18:56 31.17632 -15.38139 35062 ft 420 kts 211°
2026-05-05 18:57 31.12488 -15.41357 35063 ft 419 kts 212°
2026-05-05 18:57 31.07372 -15.44620 35066 ft 419 kts 212°
2026-05-05 18:58 31.02263 -15.47878 35064 ft 418 kts 212°
2026-05-05 18:58 30.97166 -15.51120 35062 ft 417 kts 212°
2026-05-05 18:59 30.92066 -15.54350 35066 ft 417 kts 212°
2026-05-05 18:59 30.86977 -15.57562 35070 ft 416 kts 212°
2026-05-05 19:00 30.81907 -15.60772 35080 ft 414 kts 212°
2026-05-05 19:00 30.76853 -15.63976 35079 ft 413 kts 212°
2026-05-05 19:01 30.71805 -15.67157 35077 ft 412 kts 212°
2026-05-05 19:01 30.66776 -15.70331 35070 ft 411 kts 212°
2026-05-05 19:02 30.61758 -15.73492 35073 ft 410 kts 212°
2026-05-05 19:02 30.56720 -15.76653 35078 ft 408 kts 212°
2026-05-05 19:03 30.51735 -15.79782 35078 ft 407 kts 213°
2026-05-05 19:03 30.46767 -15.82894 35078 ft 405 kts 213°
2026-05-05 19:04 30.41815 -15.85997 35079 ft 403 kts 213°
2026-05-05 19:04 30.36889 -15.89079 35076 ft 402 kts 213°
2026-05-05 19:05 30.31979 -15.92144 35075 ft 400 kts 213°
2026-05-05 19:05 30.27098 -15.95201 35075 ft 398 kts 213°
2026-05-05 19:06 30.22237 -15.98238 35071 ft 397 kts 213°
2026-05-05 19:06 30.17381 -16.01254 35072 ft 395 kts 213°
2026-05-05 19:07 30.12543 -16.04261 35070 ft 394 kts 213°
2026-05-05 19:07 30.07686 -16.07275 35067 ft 393 kts 213°
2026-05-05 19:08 30.02875 -16.10264 35068 ft 392 kts 213°
2026-05-05 19:08 29.98082 -16.13244 35067 ft 391 kts 214°
2026-05-05 19:09 29.93303 -16.16201 35066 ft 390 kts 213°
2026-05-05 19:09 29.88528 -16.19148 35066 ft 388 kts 214°
2026-05-05 19:10 29.83774 -16.22093 35061 ft 388 kts 214°
2026-05-05 19:10 29.79032 -16.25035 35062 ft 387 kts 214°
2026-05-05 19:11 29.74296 -16.27967 35059 ft 386 kts 214°
2026-05-05 19:11 29.69565 -16.30878 35056 ft 385 kts 214°
2026-05-05 19:12 29.64851 -16.33772 35057 ft 384 kts 214°
2026-05-05 19:12 29.60139 -16.36676 35061 ft 382 kts 216°
2026-05-05 19:13 29.55957 -16.40300 35056 ft 375 kts 224°
2026-05-05 19:13 29.51903 -16.44135 35055 ft 375 kts 223°
2026-05-05 19:14 29.47877 -16.47924 35053 ft 374 kts 223°
2026-05-05 19:14 29.43851 -16.51712 35052 ft 374 kts 224°
2026-05-05 19:15 29.39837 -16.55498 35049 ft 373 kts 223°
2026-05-05 19:15 29.35817 -16.59277 35051 ft 373 kts 223°
2026-05-05 19:16 29.31805 -16.63043 35047 ft 373 kts 223°
2026-05-05 19:16 29.27794 -16.66801 35049 ft 372 kts 223°
2026-05-05 19:17 29.23789 -16.70552 35050 ft 372 kts 223°
2026-05-05 19:17 29.19784 -16.74305 35045 ft 372 kts 223°
2026-05-05 19:18 29.15784 -16.78047 35044 ft 371 kts 223°
2026-05-05 19:18 29.11787 -16.81783 35042 ft 371 kts 223°
2026-05-05 19:19 29.08437 -16.84904 35034 ft 371 kts 223°
2026-05-05 19:19 29.06436 -16.86767 34802 ft 371 kts 223°
2026-05-05 19:19 29.04432 -16.88631 34564 ft 371 kts 223°
2026-05-05 19:20 29.02436 -16.90489 34324 ft 370 kts 223°
2026-05-05 19:20 29.00439 -16.92347 33901 ft 371 kts 223°
2026-05-05 19:20 28.98434 -16.94215 33088 ft 372 kts 223°
2026-05-05 19:20 28.96430 -16.96081 32308 ft 373 kts 222°
2026-05-05 19:21 28.94408 -16.97963 31457 ft 376 kts 222°
2026-05-05 19:21 28.92389 -16.99839 30913 ft 372 kts 222°
2026-05-05 19:21 28.90392 -17.01693 30396 ft 368 kts 222°
2026-05-05 19:21 28.88415 -17.03526 29841 ft 365 kts 221°
2026-05-05 19:22 28.86459 -17.05337 29290 ft 360 kts 221°
2026-05-05 19:22 28.84282 -17.06822 28808 ft 375 kts 205°
2026-05-05 19:22 28.81687 -17.07472 28326 ft 390 kts 192°
2026-05-05 19:22 28.78974 -17.07748 27851 ft 391 kts 191°
2026-05-05 19:23 28.76265 -17.07996 27386 ft 390 kts 191°
2026-05-05 19:23 28.73566 -17.08234 26926 ft 388 kts 191°
2026-05-05 19:23 28.70879 -17.08473 26489 ft 387 kts 191°
2026-05-05 19:23 28.68212 -17.08714 26020 ft 382 kts 191°
2026-05-05 19:24 28.65574 -17.08958 25586 ft 380 kts 192°
2026-05-05 19:24 28.62946 -17.09207 25159 ft 378 kts 192°
2026-05-05 19:24 28.60291 -17.09420 24726 ft 379 kts 187°
2026-05-05 19:24 28.57646 -17.08992 24308 ft 390 kts 174°
2026-05-05 19:25 28.55018 -17.08245 23896 ft 389 kts 174°
2026-05-05 19:25 28.52402 -17.07483 23460 ft 387 kts 174°
2026-05-05 19:25 28.49805 -17.06718 22978 ft 385 kts 174°
2026-05-05 19:25 28.47220 -17.05954 22500 ft 383 kts 174°
2026-05-05 19:26 28.44653 -17.05197 22037 ft 380 kts 174°
2026-05-05 19:26 28.42101 -17.04450 21572 ft 378 kts 174°
2026-05-05 19:26 28.39559 -17.03711 21103 ft 376 kts 174°
2026-05-05 19:26 28.37032 -17.02949 20664 ft 376 kts 172°
2026-05-05 19:27 28.34528 -17.02077 20224 ft 376 kts 170°
2026-05-05 19:27 28.32050 -17.01134 19789 ft 376 kts 169°
2026-05-05 19:27 28.29588 -17.00160 19355 ft 374 kts 168°
2026-05-05 19:27 28.27131 -16.99185 18846 ft 373 kts 168°
2026-05-05 19:28 28.24666 -16.98221 17511 ft 379 kts 168°
2026-05-05 19:28 28.22172 -16.97265 16748 ft 370 kts 167°
2026-05-05 19:28 28.19818 -16.96363 16606 ft 345 kts 168°
2026-05-05 19:28 28.17615 -16.95520 16348 ft 326 kts 168°
2026-05-05 19:29 28.15492 -16.94721 15829 ft 318 kts 169°
2026-05-05 19:29 28.13406 -16.93942 15244 ft 314 kts 168°
2026-05-05 19:29 28.11340 -16.93174 14645 ft 310 kts 168°
2026-05-05 19:29 28.09300 -16.92417 14074 ft 307 kts 168°
2026-05-05 19:30 28.07273 -16.91662 13449 ft 305 kts 168°
2026-05-05 19:30 28.05271 -16.90916 12790 ft 302 kts 167°
2026-05-05 19:30 28.03279 -16.90172 12135 ft 300 kts 167°
2026-05-05 19:30 28.01298 -16.89432 11486 ft 299 kts 166°
2026-05-05 19:31 27.99332 -16.88697 10854 ft 297 kts 165°
2026-05-05 19:31 27.97375 -16.87961 10223 ft 296 kts 162°
2026-05-05 19:31 27.95643 -16.86731 9539 ft 300 kts 133°
2026-05-05 19:31 27.94686 -16.84643 8713 ft 305 kts 101°
2026-05-05 19:32 27.94829 -16.82236 7901 ft 306 kts 68°
2026-05-05 19:32 27.96003 -16.80274 7119 ft 303 kts 43°
2026-05-05 19:32 27.97404 -16.78503 6343 ft 303 kts 59°
2026-05-05 19:32 27.98040 -16.76256 5542 ft 301 kts 80°
2026-05-05 19:33 27.98535 -16.73976 4767 ft 297 kts 68°
2026-05-05 19:33 27.99320 -16.71829 3978 ft 293 kts 65°
2026-05-05 19:33 28.00102 -16.69720 3218 ft 290 kts 66°
2026-05-05 19:33 28.00836 -16.67621 2668 ft 279 kts 67°
2026-05-05 19:34 28.01290 -16.66292 2570 ft 255 kts 67°
2026-05-05 19:34 28.01876 -16.64608 2514 ft 202 kts 66°
2026-05-05 19:34 28.02338 -16.63252 2201 ft 176 kts 68°
2026-05-05 19:35 28.03242 -16.60744 959 ft 168 kts 64°
2026-05-05 19:35 28.03661 -16.59543 405 ft 160 kts 71°
2026-05-05 19:35 28.04045 -16.58428 222 ft 146 kts 69°
2026-05-05 19:35 28.04379 -16.57461 214 ft 114 kts 71°
2026-05-05 19:36 28.04602 -16.56814 217 ft 57 kts 68°
2026-05-05 19:36 28.04699 -16.56584 212 ft 26 kts 50°
2026-05-05 19:36 28.04817 -16.56435 213 ft 25 kts 39°
2026-05-05 19:36 28.04907 -16.56363 217 ft 8 kts 12°
2026-05-05 19:37 28.04927 -16.56409 216 ft 7 kts 269°
2026-05-05 19:37 28.04913 -16.56471 213 ft 9 kts 252°
2026-05-05 19:37 28.04888 -16.56547 214 ft 12 kts 249°
2026-05-05 19:37 28.04842 -16.56679 211 ft 19 kts 249°
2026-05-05 19:38 28.04796 -16.56813 209 ft 18 kts 250°
2026-05-05 19:38 28.04753 -16.56937 208 ft 16 kts 248°
2026-05-05 19:38 28.04713 -16.57049 211 ft 14 kts 249°
2026-05-05 19:38 28.04671 -16.57149 213 ft 19 kts 244°
2026-05-05 19:39 28.04616 -16.57311 210 ft 22 kts 250°
2026-05-05 19:39 28.04567 -16.57468 210 ft 20 kts 250°
2026-05-05 19:39 28.04520 -16.57612 215 ft 19 kts 247°
2026-05-05 19:39 28.04470 -16.57748 209 ft 18 kts 248°
2026-05-05 19:40 28.04426 -16.57874 209 ft 17 kts 248°
2026-05-05 19:40 28.04383 -16.57998 211 ft 16 kts 249°
2026-05-05 19:40 28.04378 -16.58091 216 ft 10 kts 307°
2026-05-05 19:40 28.04410 -16.58118 216 ft 2 kts 335°
2026-05-05 19:41 28.04442 -16.58136 219 ft 5 kts 327°
2026-05-05 19:41 28.04452 -16.58198 217 ft 10 kts 259°
2026-05-05 19:41 28.04475 -16.58254 220 ft 6 kts 307°
2026-05-05 19:41 28.04504 -16.58296 223 ft 8 kts 308°
2026-05-05 19:42 28.04513 -16.58310 220 ft 0 kts 309°
2026-05-05 19:48 28.04514 -16.58310 220 ft 0 kts 309°